GFSMW_con_3kmhel_015.txt.gz
Helicity
56 56 124 193 214 213 180 126 98 77 170 141 142 115 155 184 203 185 174 182 193 208 234 226 212 226 221 201 198 196 169 156 151 154 124 99 57 48 73 61 53 73 90
123 85 65 66 99 135 123 105 66 67 141 159 157 137 149 170 237 259 233 227 236 248 288 302 289 300 307 268 276 309 295 234 226 203 170 107 117 90 71 35 5 11 50
64 14 6 28 73 94 89 74 95 119 127 135 156 168 188 188 229 247 291 295 324 304 338 355 373 387 418 396 387 392 384 340 326 315 282 220 178 117 55 23 -11 -29 2
15 41 49 46 55 30 66 83 90 100 107 138 169 192 229 217 254 246 274 278 334 328 347 367 416 439 489 475 468 488 498 521 501 501 449 450 376 216 111 61 29 -13 1
27 15 32 30 25 65 82 120 137 141 145 151 149 166 192 222 249 230 224 228 249 292 306 337 392 477 513 490 519 606 730 713 732 664 629 486 460 317 204 90 24 -8 -30
31 51 73 103 136 192 230 246 239 240 257 199 146 132 151 199 205 194 173 176 221 230 262 380 515 575 682 794 783 855 816 715 758 767 545 574 536 427 270 161 77 36 -57
93 91 128 159 223 271 295 276 265 241 207 162 133 124 148 146 155 175 206 194 201 233 314 478 710 886 871 905 922 961 626 763 777 500 523 468 284 221 231 242 152 44 -20
57 130 232 270 258 262 256 217 200 178 145 138 149 181 170 176 182 187 193 180 239 364 528 736 846 821 782 885 784 540 556 320 201 155 143 157 170 209 222 221 178 71 42
177 227 202 201 207 190 155 146 143 124 126 153 163 158 177 172 170 193 214 247 342 443 554 597 627 620 645 561 368 206 165 36 63 87 127 170 192 180 185 198 200 182 62
161 161 146 119 110 108 102 85 106 135 126 129 150 143 124 147 181 247 269 299 352 396 403 421 403 384 322 95 -19 -22 -12 11 94 137 140 146 149 144 154 155 161 173 162
85 92 105 105 91 98 90 79 125 114 103 123 127 99 122 160 236 267 308 342 313 273 260 232 196 69 -141 -28 40 77 88 109 118 121 120 120 117 132 137 142 147 155 156
109 72 35 61 76 58 70 81 95 89 74 89 77 55 89 173 256 259 237 236 229 216 157 147 106 80 67 93 106 105 110 122 125 112 115 115 112 122 133 148 151 154 140
202 170 134 112 145 131 124 90 77 57 52 53 58 90 112 182 222 275 286 283 289 233 160 128 130 121 126 121 119 129 129 116 117 122 126 121 120 117 118 118 123 131 129
100 110 99 136 185 158 106 80 63 68 72 91 104 139 170 225 262 338 378 415 358 237 184 125 112 117 114 116 114 109 115 125 124 122 117 115 113 107 104 107 109 112 121
55 98 140 160 188 156 99 92 82 92 108 118 126 175 251 339 456 543 472 336 189 113 106 101 107 110 101 96 123 129 129 126 122 111 100 92 78 49 75 113 105 102 113
59 118 164 173 192 155 106 106 128 140 165 142 140 160 209 193 138 140 41 -34 -127 -42 70 119 114 104 102 93 89 97 119 115 109 104 89 97 70 77 54 64 70 86 129
120 142 174 227 146 124 135 151 156 162 206 155 132 115 112 100 72 53 27 16 53 107 127 117 108 100 96 82 87 88 114 124 115 108 107 95 98 58 85 54 27 43 44
162 160 154 110 91 133 164 189 212 177 192 167 159 125 106 106 102 98 118 125 124 120 109 102 100 100 90 82 76 69 105 118 111 109 105 36 38 72 58 66 81 95 109
150 84 106 114 141 155 193 227 178 186 187 237 212 159 142 152 148 140 113 112 118 109 101 90 96 95 82 60 58 71 101 101 97 65 54 63 61 52 18 63 86 88 94
73 98 110 133 154 183 233 214 210 197 158 125 139 145 157 140 122 103 100 104 103 93 99 104 97 76 81 60 57 77 97 92 12 13 28 29 52 57 63 79 104 81 90
69 85 97 108 134 131 191 170 109 125 103 118 131 143 136 112 106 100 103 102 103 106 98 87 71 73 74 73 59 50 83 16 -12 4 43 77 33 15 -8 31 46 42 18
84 84 110 136 120 135 142 114 113 157 165 141 143 139 113 95 104 103 99 111 113 96 76 69 65 75 79 54 52 45 25 -6 -20 4 30 -1 -21 -13 -10 -15 1 3 -2
102 123 143 151 141 155 160 187 189 166 176 155 152 106 82 88 91 102 106 102 95 75 65 61 57 53 47 74 28 26 9 10 1 -1 -24 -26 -25 12 28 42 56 37 12
112 136 152 141 148 169 158 153 160 156 151 125 99 83 80 81 108 105 101 103 90 72 62 58 54 40 21 19 10 -17 -6 10 -11 -22 -44 -42 -12 47 69 72 52 32 26
116 110 116 113 102 87 90 118 126 129 120 106 92 83 87 106 121 107 95 95 80 83 77 71 62 15 -6 -12 5 14 7 -8 -17 -20 -47 -56 -17 19 36 67 51 42 25
122 116 104 102 118 137 132 123 127 122 100 84 78 89 102 114 111 101 93 71 69 76 74 60 56 -28 -28 4 22 31 29 22 10 -31 -46 -45 -8 8 25 33 64 48 35

GFSMW_con_3kmhel_021.txt.gz
Helicity
21 7 17 58 79 68 72 71 76 75 81 82 81 93 87 72 69 70 75 69 94 94 138 154 154 184 220 222 227 223 206 208 202 225 166 154 142 138 134 143 147 145 137
78 60 48 33 11 21 27 37 68 91 75 84 109 114 101 81 70 52 68 63 96 113 146 160 161 155 186 203 235 273 288 272 272 260 202 189 135 143 151 147 190 172 166
81 76 91 84 78 93 88 89 86 101 126 130 132 141 143 144 134 121 97 110 114 91 105 114 126 138 169 202 219 251 292 314 286 288 293 236 199 170 164 126 163 185 190
104 98 101 118 125 117 110 119 138 169 199 212 219 204 165 133 122 108 114 110 70 77 107 118 108 113 135 153 174 204 240 253 301 320 341 370 344 265 194 228 193 245 226
62 82 103 133 146 173 214 204 194 195 191 166 141 123 109 52 11 25 47 48 56 74 99 109 109 111 127 140 157 178 225 243 290 317 351 405 414 424 335 212 241 343 338
92 138 177 195 201 195 186 174 184 158 131 113 72 71 64 53 70 60 37 40 68 67 98 119 129 160 180 196 219 267 296 305 338 423 482 559 505 449 502 394 357 347 288
72 163 187 190 195 191 177 165 169 98 46 75 49 80 126 128 110 87 56 70 79 94 117 147 179 191 221 253 277 316 346 364 405 427 512 597 627 638 564 507 362 273 214
62 115 145 119 105 74 67 45 41 85 113 152 182 156 130 108 83 57 56 77 97 118 163 215 228 248 263 276 270 253 238 270 284 316 330 306 279 241 198 177 209 193 168
106 104 119 111 79 57 36 50 84 100 123 133 123 103 98 72 47 27 60 82 80 117 167 222 216 184 173 145 127 106 104 97 117 155 92 32 35 25 27 59 65 53 97
114 113 92 78 70 86 93 74 79 86 80 65 70 68 54 32 46 51 43 57 100 183 228 268 239 181 138 121 67 36 16 0 -24 -67 -140 -195 -141 -46 -18 -8 4 21 41
56 34 37 44 38 35 54 53 58 73 74 56 66 72 89 60 22 18 82 138 169 178 204 206 249 235 222 141 109 102 66 42 37 20 13 10 8 22 36 57 76 86 101
35 10 59 54 50 71 78 92 113 106 94 70 91 97 74 44 46 96 128 182 264 278 284 263 178 133 56 35 80 75 69 63 56 53 54 51 67 70 84 93 90 105 111
58 79 110 74 89 95 116 116 83 63 78 116 121 127 109 97 102 158 218 231 261 233 179 107 56 42 49 71 77 89 84 71 62 58 60 64 76 79 84 82 92 98 105
44 61 84 82 83 89 77 60 63 75 94 118 135 155 137 79 117 144 123 100 103 74 83 75 57 48 56 73 79 70 53 45 48 55 58 65 68 66 69 77 82 89 99
10 20 47 96 91 107 110 71 65 79 102 104 121 131 94 120 132 85 74 62 84 88 86 89 82 87 79 82 64 53 53 55 56 64 70 76 75 63 64 87 80 79 90
19 14 61 101 124 151 146 53 41 46 59 94 106 143 168 145 125 118 77 78 72 97 106 105 98 84 80 93 86 80 69 60 59 54 49 50 44 42 49 56 62 80 100
65 81 129 126 153 111 41 55 66 65 96 114 139 142 103 98 107 116 107 101 115 117 103 94 88 79 82 76 64 60 60 61 56 46 41 46 54 49 58 65 66 54 44
113 118 107 121 85 52 85 97 106 105 88 122 148 141 126 123 126 117 112 113 117 95 85 78 80 79 76 69 64 59 52 57 41 31 33 36 36 52 52 47 49 40 52
65 86 92 54 46 57 94 98 110 142 125 163 164 143 141 152 136 127 119 100 78 74 71 74 79 76 68 66 57 54 54 43 26 26 30 37 47 24 20 19 -37 37 53
137 92 57 43 52 68 72 84 86 121 151 178 140 151 146 123 110 106 87 83 74 76 88 86 79 67 67 51 52 55 50 32 27 21 22 30 25 13 -36 -4 56 48 53
115 72 60 67 69 59 76 91 105 110 98 117 125 113 110 97 94 90 86 81 79 88 86 82 78 67 57 48 52 62 60 47 25 14 17 19 13 -5 4 -5 -52 -6 20
66 78 78 86 83 92 117 113 108 115 122 130 121 108 100 90 87 84 81 82 82 78 76 68 60 58 47 42 50 50 50 36 10 -3 -2 5 12 -1 -23 -32 -10 6 8
117 103 106 114 107 101 119 114 108 137 144 136 120 107 94 85 79 74 86 84 80 77 74 72 64 55 47 42 39 33 20 20 -9 -17 -5 2 -1 -14 -22 4 15 7 0
92 104 123 134 112 108 127 118 136 153 143 129 120 105 90 79 74 88 93 88 80 85 82 74 69 58 41 39 34 5 -8 7 -12 2 -12 -16 -23 -31 -1 5 0 1 -2
86 118 131 141 118 122 125 131 141 145 129 126 114 107 96 82 83 93 86 86 94 93 92 92 84 62 43 24 -15 -21 -20 -11 -3 -6 -23 -22 -19 -9 17 13 10 11 9
80 119 121 131 123 139 125 125 131 135 124 112 117 111 91 87 88 88 74 80 87 89 99 84 92 69 38 -28 -10 1 5 11 12 -26 -18 -10 -14 -2 17 31 30 22 26

GFSMW_con_3kmhel_024.txt.gz
Helicity
94 82 74 62 61 71 57 58 84 138 121 116 102 100 104 103 101 95 105 83 85 78 78 98 99 105 126 105 90 100 105 125 141 144 163 151 152 158 156 140 129 119 119
197 211 183 148 133 123 113 136 144 158 148 117 120 119 114 121 120 100 111 90 98 68 83 97 85 85 108 123 125 119 138 142 146 175 165 169 178 173 134 131 163 132 131
218 201 157 126 117 137 154 165 177 171 165 141 132 129 117 122 170 165 126 106 70 57 85 89 90 104 127 130 116 119 117 144 145 167 238 212 241 147 144 238 154 139 146
127 114 111 121 129 160 160 159 151 136 136 142 136 139 122 113 133 141 102 72 35 72 67 51 69 82 98 108 117 130 135 149 162 180 225 224 190 215 263 278 228 196 200
125 119 126 134 158 160 148 155 148 138 128 122 113 110 114 72 98 127 172 135 103 78 66 70 65 76 112 128 135 132 148 167 179 199 233 263 253 205 279 279 302 222 245
120 101 116 164 168 155 160 154 157 138 117 97 74 81 143 116 132 165 131 123 93 71 65 96 83 107 138 145 148 187 230 240 296 329 347 414 445 487 387 298 236 267 218
69 82 131 175 181 156 133 105 92 84 70 41 55 106 145 167 164 142 137 102 68 59 64 99 90 147 197 226 288 270 281 291 273 283 315 311 314 306 318 345 390 456 544
56 95 132 143 123 89 61 45 29 30 65 101 161 166 168 148 129 124 82 61 58 54 72 91 129 161 174 165 173 176 168 158 174 200 184 173 165 157 165 193 219 283 267
48 90 116 87 62 68 72 66 88 104 117 138 133 131 124 99 76 63 44 30 12 44 80 115 145 215 268 196 156 120 106 77 52 21 18 50 45 38 61 82 70 110 167
78 102 92 80 79 93 102 124 125 88 82 97 121 103 82 95 91 65 37 21 50 102 161 248 231 293 269 202 141 131 122 69 45 33 19 6 -2 -19 -22 -8 1 2 18
105 114 86 53 52 72 80 116 131 119 135 122 105 85 107 107 102 86 85 116 172 243 273 268 237 157 97 108 95 95 91 89 74 57 45 47 43 33 25 4 4 7 25
105 119 82 54 54 87 137 144 140 135 112 90 100 116 134 127 125 137 150 154 159 157 160 142 100 43 24 10 10 32 45 41 53 56 59 54 59 58 51 49 42 50 53
164 128 110 89 86 114 141 103 107 95 68 75 102 133 137 113 119 133 131 130 95 66 60 52 72 86 73 69 70 73 81 80 72 61 57 51 55 53 58 61 70 80 81
112 102 124 126 150 136 93 91 116 90 64 71 71 87 107 128 128 120 76 70 65 79 95 81 85 92 95 95 102 89 75 64 59 59 57 60 62 60 61 65 70 69 75
115 86 140 146 127 131 94 101 67 50 59 71 81 123 160 120 172 172 107 85 78 101 92 87 100 91 83 104 112 73 64 60 57 58 64 67 79 90 84 94 87 87 90
103 127 136 131 129 104 104 82 48 60 70 106 136 161 172 122 116 112 113 114 87 83 93 93 93 76 83 173 101 76 70 63 63 68 66 61 42 38 51 60 66 77 96
212 189 144 129 106 102 66 63 58 75 110 123 139 154 155 151 154 137 129 115 104 99 88 80 83 79 78 166 99 83 72 70 62 59 49 42 47 62 60 59 73 71 63
281 248 113 108 93 57 63 64 79 120 109 104 122 140 160 152 136 118 115 101 91 82 81 83 88 90 96 133 93 78 62 69 50 41 31 37 35 40 56 49 48 47 48
128 -40 52 78 83 66 80 83 98 91 123 97 106 122 119 102 96 92 86 84 83 83 89 98 96 89 88 111 80 65 61 53 45 37 30 16 12 16 34 35 34 32 33
-57 57 62 92 96 94 110 121 98 105 115 96 94 112 104 88 84 85 78 83 75 85 109 95 82 89 76 93 82 80 72 57 53 40 19 12 8 25 22 25 26 10 -26
55 64 80 97 112 107 111 100 93 88 121 97 103 101 93 90 85 76 74 73 81 91 103 76 64 51 75 63 62 70 74 68 41 15 7 3 33 54 14 3 -29 -36 -12
54 92 112 112 117 122 140 110 82 105 132 114 111 105 101 97 83 76 73 82 79 85 91 77 71 76 82 65 56 54 42 42 9 -14 -21 -8 5 1 -4 -22 -22 2 9
72 115 121 118 127 149 103 91 90 128 128 118 113 102 95 90 78 74 78 80 77 90 101 90 88 89 69 66 73 28 30 0 -26 -29 -15 -10 -13 -12 -29 -33 11 11 -7
110 126 129 132 137 115 105 100 126 133 104 110 110 93 86 98 74 83 93 86 90 109 100 98 101 83 71 71 63 39 -13 -7 -19 -16 -16 -22 -21 -23 -23 -2 3 2 0
121 140 141 126 109 114 110 103 125 118 92 109 97 77 89 81 76 81 83 81 89 127 107 109 96 87 80 71 34 -34 -27 -20 -8 13 -15 -15 -12 -12 1 13 9 3 7
119 122 123 136 124 112 101 117 132 132 91 104 76 82 77 78 82 72 68 122 119 111 115 107 100 91 77 47 35 -9 1 0 11 -13 -13 -1 5 10 19 22 21 4 4

GFSMW_con_3kmhel_030.txt.gz
Helicity
224 281 334 405 413 319 268 251 283 242 263 208 207 239 306 306 258 240 227 231 219 192 164 146 203 228 192 209 200 172 149 153 158 143 144 146 133 144 163 196 279 285 305
289 252 257 337 273 214 201 208 190 188 201 224 191 158 177 169 139 119 143 139 192 251 195 168 187 203 184 162 148 147 159 161 140 151 132 161 120 113 122 149 210 248 284
159 192 207 187 159 151 119 105 109 143 175 213 219 193 152 153 168 198 204 207 242 228 198 247 220 189 173 158 141 114 114 139 134 136 147 146 161 126 144 160 165 140 175
197 141 122 110 109 116 133 125 146 164 144 141 172 168 132 151 153 150 198 226 210 236 282 223 205 194 163 153 109 93 110 138 152 156 262 300 259 151 104 120 157 96 122
169 129 118 108 112 80 76 101 118 115 113 83 77 76 110 129 125 136 171 194 243 239 211 186 145 126 102 91 139 223 205 200 212 226 188 176 175 174 217 159 119 183 108
123 128 97 65 45 32 64 87 114 146 135 113 77 65 97 90 111 107 161 173 173 158 137 126 112 141 221 220 196 226 229 216 224 214 209 203 139 121 149 173 136 92 133
139 145 132 130 115 86 55 72 94 92 111 149 172 205 219 207 169 163 153 175 136 92 94 116 193 185 187 204 229 232 240 210 174 123 116 124 127 112 95 106 119 72 31
72 79 117 117 156 164 154 136 139 123 130 164 183 256 242 155 152 139 160 142 144 145 267 192 167 191 207 207 196 167 158 141 119 90 61 79 75 86 87 83 84 89 74
117 84 149 161 174 150 113 120 115 93 151 194 207 173 147 167 150 165 168 149 164 200 221 153 147 163 163 142 112 110 120 115 127 140 158 91 91 90 88 63 52 29 35
106 130 137 151 130 136 147 183 244 244 264 250 221 173 150 149 144 140 176 257 228 176 147 141 135 134 131 94 74 80 72 80 90 113 84 89 103 97 119 108 108 87 47
148 115 201 167 201 207 211 219 334 342 277 237 172 149 137 136 157 218 247 234 175 163 138 140 128 77 68 62 74 94 107 81 104 120 109 108 97 111 105 96 96 102 106
75 139 207 237 226 179 209 272 390 428 278 155 133 133 137 150 203 187 200 150 150 137 155 142 111 96 89 85 103 140 140 127 164 146 124 116 112 108 81 74 73 74 69
62 157 169 197 224 236 297 404 488 277 139 117 151 117 124 230 213 189 212 160 157 145 138 106 100 82 49 73 141 124 144 230 174 122 92 85 79 77 75 72 77 79 81
215 212 216 330 362 192 314 396 306 151 135 111 103 92 194 232 159 175 144 126 110 118 134 134 125 119 115 113 143 180 159 140 104 61 79 78 81 82 88 109 85 73 78
225 301 309 230 187 167 297 211 137 134 128 100 107 137 265 262 160 154 122 136 156 173 146 118 119 112 104 165 158 156 126 91 73 58 66 79 76 71 87 95 95 85 94
133 127 139 140 118 119 112 148 143 143 104 100 152 128 246 281 177 172 145 133 140 146 144 136 118 121 141 186 170 137 85 72 68 55 66 83 74 78 109 70 97 125 106
122 126 137 150 118 122 167 179 97 128 173 139 126 178 286 353 178 124 107 137 160 163 149 125 121 156 163 165 142 113 61 64 66 95 98 83 84 83 83 74 64 23 18
162 148 118 83 66 107 102 94 95 187 214 209 211 208 336 288 158 136 157 184 189 156 137 115 169 145 111 129 128 76 75 78 94 108 83 80 61 53 58 59 57 61 60
116 47 35 71 81 68 95 105 141 178 167 211 110 209 140 283 190 199 217 226 165 135 126 150 147 111 87 78 95 115 108 96 90 85 84 71 61 50 63 43 23 21 26
62 54 50 74 72 100 172 221 218 148 123 112 222 223 189 104 181 236 258 183 131 123 155 130 108 78 97 99 94 95 125 125 96 70 59 40 47 63 73 39 7 -12 -8
78 79 110 162 189 211 198 205 133 89 123 107 78 56 200 146 182 272 253 132 119 144 145 104 58 82 108 112 73 138 124 115 93 76 58 51 22 29 -25 -52 -59 -45 -30
121 156 196 190 194 184 149 112 121 101 103 86 106 173 144 144 211 217 162 132 134 145 131 87 75 106 114 113 118 128 130 88 89 59 37 -39 2 10 -9 -12 -11 -8 -23
165 178 167 174 156 96 91 163 165 144 158 68 80 110 178 200 213 222 142 121 121 135 106 89 96 112 122 120 143 97 62 63 49 -20 -14 23 48 -11 -15 11 18 12 34
151 167 172 123 116 127 173 131 161 167 66 93 194 190 185 138 143 168 104 103 114 102 109 114 119 124 116 111 109 86 88 18 -26 -11 29 66 -40 -26 13 8 7 28 5
152 142 118 124 122 146 171 180 173 123 101 131 126 85 99 138 173 100 73 82 102 114 127 124 136 131 130 113 77 94 68 -33 -8 14 29 -42 -40 -20 6 10 19 22 4
107 117 124 133 115 156 163 130 140 145 129 109 93 89 85 140 63 55 66 96 84 96 97 95 126 120 101 82 53 57 -25 -1 -2 -4 -34 -35 -30 -14 16 2 11 32 34

GFSMW_con_3kmhel_036.txt.gz
Helicity
511 529 497 509 443 444 322 221 233 226 181 176 194 259 267 300 323 366 415 413 389 372 342 305 306 282 244 198 159 112 104 83 82 80 77 75 97 131 142 131 143 140 144
453 443 415 395 295 262 197 149 150 181 158 120 119 130 153 174 196 230 259 249 237 254 269 275 260 245 209 178 137 107 75 57 92 71 71 87 91 121 138 115 126 100 95
199 211 233 205 196 175 156 154 110 69 78 95 108 126 114 120 123 128 126 162 191 197 197 192 167 143 107 108 100 105 116 114 105 124 106 104 125 76 35 102 88 76 68
168 135 142 193 198 168 152 118 77 80 99 104 85 68 62 69 53 71 72 112 140 138 123 103 63 36 47 105 123 129 110 95 104 103 175 139 154 88 67 82 111 126 103
-48 -2 81 65 25 35 66 82 90 94 88 72 57 65 71 39 111 162 157 135 129 135 112 89 80 84 86 75 74 75 96 94 92 96 122 147 142 159 143 86 49 84 71
42 49 15 12 18 44 59 83 75 68 102 110 123 141 163 158 168 182 188 156 138 121 102 72 42 44 43 40 50 74 94 96 102 126 128 132 107 138 131 149 148 117 64
59 50 57 59 37 79 100 101 107 144 163 202 225 227 200 236 222 217 182 157 136 117 83 57 47 18 -4 26 78 105 113 111 126 105 113 101 95 76 76 77 92 100 80
86 68 72 111 147 160 144 154 216 250 270 276 270 255 252 229 213 184 158 170 127 85 64 65 74 53 48 70 88 93 91 82 90 86 83 89 59 69 92 90 90 84 75
89 114 125 157 199 220 229 243 361 355 293 272 195 241 268 258 173 121 104 113 110 70 37 23 15 36 58 56 80 88 105 109 111 107 96 82 79 98 112 117 99 111 104
77 107 160 214 245 270 285 305 284 241 221 232 245 247 221 166 123 129 139 122 92 51 54 46 35 54 77 90 101 108 90 121 132 105 96 91 124 117 105 105 93 72 93
200 216 297 367 303 246 196 184 206 254 271 229 197 165 146 112 124 123 121 116 86 74 67 48 104 119 121 108 104 84 66 85 123 151 158 146 123 91 73 49 73 69 100
344 335 263 182 208 164 137 140 215 229 179 121 142 100 102 137 197 114 130 165 146 102 63 89 106 134 146 164 127 124 136 133 139 129 110 92 88 72 60 61 49 81 106
253 190 172 156 132 155 147 171 175 133 115 131 104 113 125 160 175 149 200 192 169 121 84 76 98 116 160 178 154 137 126 114 102 79 64 52 48 55 67 77 90 100 105
212 150 109 67 88 126 151 140 134 107 105 104 118 141 136 165 217 198 225 205 177 181 148 110 128 178 178 182 168 143 112 70 45 31 35 45 56 73 86 96 113 111 103
192 132 79 27 -7 110 122 127 133 132 136 132 145 145 160 169 186 164 170 167 188 308 206 129 203 184 193 192 153 104 65 40 36 51 56 55 64 74 103 148 133 130 118
86 22 17 40 133 160 178 132 124 155 187 189 188 179 176 182 186 152 167 115 295 205 133 202 167 184 187 155 101 69 58 57 68 86 92 92 73 79 80 81 111 118 112
-61 23 108 151 193 155 137 173 161 136 140 128 141 143 144 90 67 90 129 190 99 23 181 156 191 174 129 90 70 65 85 95 99 107 105 96 100 92 87 85 76 78 75
79 179 190 188 163 153 167 143 111 85 97 135 101 86 60 42 54 83 138 118 109 62 120 176 181 161 119 91 75 78 98 109 121 107 95 96 87 80 77 87 88 98 90
185 182 157 138 134 126 90 93 94 95 123 138 110 80 62 60 123 150 106 111 64 56 150 150 168 130 86 76 109 108 105 109 105 89 94 82 80 57 41 67 52 37 43
167 142 117 123 134 110 86 121 118 174 176 117 82 48 41 65 111 96 72 29 108 171 153 144 112 75 69 97 115 111 78 89 86 92 75 42 29 5 4 33 61 58 27
183 161 163 143 121 117 126 145 173 179 150 124 80 33 48 57 89 114 60 162 194 151 132 94 64 55 84 87 103 89 82 103 101 96 85 77 36 29 34 32 38 -17 8
165 137 125 129 110 112 127 132 135 145 159 137 97 80 60 89 112 106 137 148 145 118 73 73 57 59 85 104 82 71 64 69 108 108 87 101 38 31 27 42 50 49 14
125 118 143 127 112 101 102 113 110 140 170 158 127 73 74 91 98 124 155 136 101 68 56 68 72 71 83 77 64 40 48 51 93 96 48 55 38 34 45 19 32 24 11
134 134 132 128 116 95 91 98 104 139 183 169 114 59 77 86 155 126 109 81 65 64 60 71 79 84 90 77 63 62 68 46 53 44 44 46 45 49 -1 -13 22 31 35
143 136 133 129 120 99 76 95 125 144 146 138 105 80 88 90 97 100 52 41 40 53 69 79 99 109 93 74 45 49 71 70 55 19 31 38 26 -29 -33 -14 21 28 27
137 141 131 132 117 83 89 104 122 135 112 118 114 96 100 107 92 55 60 57 48 49 55 63 119 100 90 48 27 63 79 56 60 19 10 12 -2 -29 -28 -15 5 11 18

GFSMW_con_3kmhel_039.txt.gz
Helicity
456 465 461 459 447 425 382 218 189 154 163 158 188 214 198 188 203 208 210 239 256 240 214 192 234 209 164 124 108 85 96 78 77 45 59 61 73 141 140 130 101 114 145
493 532 471 423 368 200 170 173 108 91 106 109 98 99 101 118 85 86 125 140 160 159 148 134 121 126 124 125 117 107 76 66 78 79 56 120 77 69 132 91 127 112 73
302 314 222 184 115 75 52 90 116 115 94 76 75 84 84 66 66 63 101 126 131 130 125 121 115 102 65 61 65 94 126 128 108 130 142 154 145 95 33 66 56 61 73
130 93 59 52 81 55 11 17 6 31 38 47 53 46 49 50 -6 -7 31 82 143 149 108 91 74 52 53 110 112 122 123 141 160 129 157 146 147 113 80 116 105 122 126
12 -19 12 26 26 -5 -4 -0 23 16 9 20 27 25 31 35 47 73 84 113 159 176 152 131 113 98 78 77 86 81 94 93 85 94 111 126 142 148 143 106 56 73 75
17 -0 14 25 29 5 12 46 57 61 68 96 118 95 93 116 112 116 132 143 169 181 157 128 100 77 57 42 31 38 55 72 89 100 110 101 94 103 110 115 125 83 27
50 28 -16 -26 -5 21 7 95 140 168 152 160 170 166 177 196 177 125 129 153 158 125 92 96 94 67 47 46 42 62 78 90 113 139 158 142 111 108 117 114 129 92 72
45 108 67 79 99 50 163 175 193 199 184 182 186 199 193 155 133 129 132 118 111 94 83 71 50 33 26 46 46 80 93 104 136 148 136 122 106 96 97 114 119 100 81
67 147 129 126 166 192 201 186 171 185 205 219 213 191 145 144 141 129 137 147 133 80 43 74 51 18 21 62 77 86 78 104 129 133 135 130 113 83 83 126 152 134 115
234 247 280 308 214 172 146 168 184 236 234 201 158 161 156 120 130 129 126 148 118 66 65 80 69 71 70 63 83 97 110 130 155 153 147 140 146 160 152 110 120 127 118
223 270 347 313 188 197 167 174 189 219 200 153 163 154 127 123 122 136 97 135 131 117 99 93 134 136 116 129 117 124 164 212 210 177 173 145 132 124 109 95 105 84 122
362 316 269 268 223 192 152 123 154 180 153 147 146 118 107 88 97 141 142 187 179 173 156 128 161 151 181 151 120 167 169 172 166 143 119 98 93 90 92 104 109 120 124
347 289 251 216 162 100 79 137 172 146 113 131 125 138 138 136 138 169 161 175 175 156 138 191 174 153 154 139 144 139 155 157 121 104 98 87 85 89 94 100 113 120 118
293 261 215 139 56 118 245 158 119 137 126 131 142 155 153 161 160 141 147 148 141 148 120 169 180 129 119 138 149 170 146 110 101 92 90 93 93 95 97 102 115 117 122
221 190 123 103 162 130 120 141 151 155 130 133 145 135 130 120 133 135 124 119 145 145 299 189 62 76 155 169 161 157 115 106 102 97 99 102 102 83 108 125 108 104 105
166 188 215 139 74 104 139 129 127 124 125 138 155 112 115 128 132 120 106 170 241 234 174 168 165 112 130 149 148 109 107 104 103 103 105 118 108 119 113 99 86 96 108
123 115 82 41 58 128 122 131 121 123 112 136 141 143 135 122 96 90 152 174 141 137 81 64 134 96 116 125 100 105 126 122 119 114 116 128 143 123 129 99 82 93 82
87 104 94 145 149 141 142 125 120 107 103 118 120 119 113 102 81 95 128 134 118 106 75 127 137 132 127 119 128 163 142 120 109 112 122 127 127 114 88 86 78 69 64
174 147 126 125 135 141 122 125 124 110 119 125 125 127 118 90 85 74 93 94 73 96 144 131 132 131 109 112 124 128 100 92 89 79 101 104 102 55 31 62 92 88 73
193 212 192 127 133 124 138 151 145 138 131 141 141 131 107 106 82 53 90 105 95 161 154 147 138 112 106 106 117 110 96 87 71 93 94 87 61 34 40 73 56 56 44
225 188 162 135 115 144 153 151 128 124 118 154 167 156 125 115 99 98 132 159 172 160 166 131 94 107 110 98 112 97 90 82 83 97 109 108 42 44 35 37 61 46 23
211 181 146 121 137 155 154 138 121 100 106 151 174 168 133 101 101 117 129 132 136 133 106 88 81 96 102 104 97 85 72 68 98 96 105 80 32 29 35 43 25 22 24
179 128 124 142 156 155 157 133 111 101 110 144 172 167 121 82 99 155 155 142 120 91 68 76 87 89 101 108 77 64 58 58 83 87 72 46 35 36 52 34 29 35 16
150 126 148 160 156 147 138 113 107 106 129 133 130 146 117 110 116 110 103 108 72 62 59 72 78 91 111 104 97 91 66 52 72 70 69 43 47 53 56 69 49 26 11
131 141 151 147 139 145 125 102 108 116 115 118 104 136 123 110 131 116 93 69 62 69 69 75 90 112 104 101 72 71 78 65 68 77 67 24 29 32 20 1 -1 -12 -13
144 151 136 138 138 139 122 109 113 122 117 109 105 132 120 127 109 81 65 60 53 43 53 51 86 95 100 76 60 77 79 65 62 74 70 16 3 9 -8 -25 -24 -16 -6

GFSMW_con_3kmhel_042.txt.gz
Helicity
252 274 261 256 313 361 435 343 309 251 197 119 75 85 65 46 76 84 90 96 104 125 134 140 149 151 156 151 145 102 96 86 101 60 65 30 45 126 158 150 141 153 117
323 275 266 259 261 221 135 115 83 65 30 22 15 32 30 51 55 40 65 92 115 116 116 136 158 162 133 120 99 94 77 65 82 81 70 138 161 163 170 131 122 146 96
146 114 121 96 16 -21 18 9 -12 -10 9 42 50 50 61 67 72 68 64 64 95 103 107 127 142 141 109 102 76 83 96 91 75 116 107 160 181 146 138 139 125 82 61
80 66 41 -12 11 -9 -39 -32 -26 -0 2 6 31 50 70 73 69 91 105 103 138 153 150 164 159 125 87 99 86 100 98 122 143 142 163 161 162 112 63 122 144 145 161
71 34 -14 -40 42 -0 -38 -16 23 41 43 57 67 67 65 82 91 123 140 139 167 187 184 170 138 115 106 98 83 59 50 61 66 81 96 112 124 117 99 82 69 122 130
41 18 -10 5 33 -14 -2 -1 34 71 71 89 99 108 119 129 161 155 139 158 173 165 143 134 132 116 87 42 16 19 43 75 103 101 85 73 66 59 81 109 118 102 81
59 13 39 53 41 227 102 76 86 81 122 142 166 188 198 179 171 147 147 161 158 131 94 104 92 76 49 54 64 73 84 111 133 91 83 89 101 125 126 145 132 126 97
-4 36 109 144 137 122 95 97 93 144 172 141 163 168 169 160 151 133 131 130 133 114 89 89 109 111 105 94 93 102 89 84 80 88 112 135 144 165 165 147 151 129 95
75 122 149 158 169 157 153 99 195 140 139 144 159 166 142 126 111 98 109 127 128 151 97 110 127 124 123 104 113 93 87 101 97 107 122 142 152 167 169 159 131 150 109
197 227 265 223 263 245 224 207 167 138 104 120 151 138 131 121 106 118 101 98 109 134 154 181 168 126 115 128 134 116 137 136 110 144 166 172 166 158 143 131 122 135 117
309 315 316 332 307 245 192 168 127 130 160 171 165 151 152 147 115 91 98 124 160 185 185 163 143 137 139 164 172 154 133 141 142 145 141 131 122 121 129 122 128 135 160
377 375 343 304 252 235 203 213 171 197 182 159 157 143 136 146 133 145 170 193 191 196 168 154 165 154 161 182 142 137 148 138 123 130 120 105 108 111 118 132 131 140 151
366 317 300 264 247 246 204 134 173 166 154 164 166 152 144 150 147 166 190 187 185 182 159 181 201 186 226 140 152 136 130 125 122 109 97 97 107 109 118 122 130 134 129
298 278 264 264 213 137 164 177 188 189 164 146 125 112 118 120 126 136 140 142 144 170 180 214 211 201 126 124 136 126 134 126 113 98 101 113 120 120 127 129 140 130 129
259 230 242 237 156 176 211 219 172 114 107 107 104 103 100 113 132 131 116 114 140 161 185 164 154 196 169 187 135 96 113 113 96 102 112 119 113 85 111 153 161 144 131
209 206 187 150 191 205 182 145 109 94 98 91 92 95 127 137 128 120 115 130 131 124 135 125 87 77 112 125 102 100 112 102 103 108 110 115 102 119 117 116 99 100 114
163 154 151 151 189 181 129 109 86 88 93 101 103 127 135 126 119 115 118 127 122 119 105 86 98 144 152 117 106 135 124 116 109 110 108 110 136 121 130 97 60 56 46
166 149 115 124 165 140 124 107 118 116 126 120 121 118 130 134 127 131 115 101 94 95 73 94 137 148 126 119 125 125 118 108 97 96 97 111 117 114 90 79 98 103 88
147 106 135 175 167 153 124 127 136 143 139 123 120 134 149 156 145 141 123 110 109 112 96 120 141 141 114 111 129 126 110 97 81 73 86 96 118 88 48 75 75 61 63
183 178 184 174 166 133 113 139 141 135 136 126 121 141 170 183 152 142 117 123 135 152 170 138 142 109 110 104 113 116 116 102 88 82 85 83 101 65 45 71 68 66 48
257 218 201 159 112 104 132 149 139 139 121 119 121 137 177 180 147 129 127 131 136 145 142 124 100 92 103 100 110 102 120 108 97 93 96 106 65 37 35 42 61 50 35
250 207 154 117 101 114 142 142 141 121 122 122 134 155 167 161 153 122 123 146 123 133 129 97 72 80 92 98 102 92 84 82 114 101 98 104 47 32 35 45 27 34 41
211 141 123 110 109 128 150 149 129 127 126 136 129 124 133 136 134 140 144 133 125 115 70 71 71 72 87 102 87 87 75 87 103 93 73 66 50 38 51 38 44 46 43
147 122 117 123 133 134 143 139 130 136 138 124 116 128 132 128 127 133 118 112 101 77 68 67 70 70 85 97 108 116 101 85 90 81 82 80 55 33 47 45 49 45 29
119 119 132 134 128 132 141 139 132 128 124 120 107 117 120 136 145 143 119 99 80 83 78 76 84 87 80 98 107 97 122 103 93 90 86 80 64 14 21 14 15 36 24
128 138 139 132 130 136 145 138 123 121 108 106 112 109 119 134 125 114 87 65 66 52 50 46 85 75 83 86 78 90 113 97 93 91 85 79 71 18 -2 -2 -10 -7 -8

GFSMW_con_3kmhel_045.txt.gz
Helicity
96 109 108 109 131 179 196 194 170 128 150 87 50 -5 -7 33 59 71 83 97 108 117 127 134 140 129 135 118 112 109 126 121 106 81 105 67 54 87 146 192 187 192 179
155 133 103 58 33 44 80 114 113 54 21 10 -55 -33 9 39 63 70 70 66 79 93 125 126 125 115 109 118 112 102 88 68 67 63 45 101 82 126 161 186 176 191 187
127 98 70 56 19 19 18 11 -3 -7 -26 -53 6 37 59 67 54 71 102 145 162 151 154 155 139 125 110 112 101 96 99 107 87 101 123 177 224 234 194 201 178 183 149
104 82 51 52 7 -23 -39 -31 -39 -18 5 27 31 42 63 90 116 141 161 146 152 165 166 154 139 130 117 117 118 117 124 118 159 134 136 166 196 201 185 142 152 112 101
75 53 44 70 39 -10 -32 -28 7 46 79 89 85 93 125 137 139 141 131 137 149 146 144 132 126 131 130 122 118 120 110 104 121 148 170 176 168 131 128 134 80 42 45
70 65 48 38 25 27 42 89 166 157 116 119 122 132 143 123 129 159 148 139 136 136 134 134 121 105 100 112 121 124 111 111 113 109 103 111 131 104 96 88 68 67 47
41 35 45 87 98 117 116 121 142 126 133 139 113 116 126 135 168 155 146 134 134 140 123 108 101 127 138 144 133 114 104 100 96 98 96 94 95 92 97 98 105 98 80
41 59 68 93 98 81 116 143 171 158 131 124 108 129 147 175 150 116 112 114 114 107 101 121 145 149 141 128 120 124 108 115 120 98 99 96 74 96 101 121 150 124 106
60 77 111 146 162 161 164 174 152 128 112 128 101 125 157 154 132 92 82 102 94 103 110 130 132 131 131 127 124 127 109 144 107 111 83 85 102 115 127 123 120 119 89
109 145 165 207 228 225 209 245 208 139 135 136 162 183 156 124 108 115 115 124 127 139 152 155 160 157 158 131 119 130 135 106 103 100 106 116 125 130 121 116 123 126 125
179 240 259 270 271 275 257 225 221 201 142 132 156 136 138 126 130 143 151 164 163 161 162 158 157 162 156 136 151 168 133 118 105 116 118 110 125 113 110 116 119 129 136
272 312 304 285 294 277 251 217 179 130 147 183 182 168 144 148 158 182 182 161 142 137 137 150 166 171 162 142 192 164 163 140 113 108 104 107 110 93 101 112 108 117 113
332 318 301 300 286 246 215 217 122 204 219 175 136 132 146 165 165 149 129 124 128 121 120 132 146 156 139 157 169 151 172 133 115 102 118 94 89 86 101 105 108 106 111
304 289 276 259 235 239 205 161 225 206 153 128 124 123 129 120 118 118 119 117 112 118 134 141 140 139 135 169 155 123 154 142 113 105 94 92 93 99 100 99 96 112 116
271 260 237 210 225 168 167 202 184 149 126 102 90 97 101 105 114 128 114 110 123 133 121 115 113 104 95 84 105 135 125 112 101 83 89 90 93 81 99 127 115 117 124
230 214 209 203 188 206 185 167 133 105 90 87 91 92 103 111 126 139 116 114 131 134 138 120 99 82 92 133 133 111 110 88 89 89 81 82 80 92 93 90 76 73 71
202 205 199 182 160 171 178 146 105 90 107 104 95 106 125 135 137 134 117 130 136 123 114 99 102 99 121 145 140 115 89 93 95 90 87 84 95 77 92 77 60 56 55
192 191 183 177 163 192 150 103 102 114 109 117 123 123 126 137 141 149 139 143 149 121 111 120 124 124 129 133 94 89 87 86 88 87 80 74 76 73 77 69 60 64 51
214 223 190 223 220 158 117 108 110 107 115 128 121 109 109 124 150 153 144 139 128 108 117 140 138 117 105 88 86 78 82 85 78 75 69 64 73 77 59 64 51 52 47
239 262 232 201 188 140 108 107 104 115 129 122 109 107 121 147 156 138 139 128 115 124 139 152 123 108 79 81 86 81 88 81 78 67 61 63 70 52 56 59 60 57 46
301 278 210 227 178 104 96 97 113 122 115 111 115 131 148 148 142 138 124 110 134 155 137 126 110 66 62 69 74 80 91 87 80 77 73 74 49 39 42 37 57 53 40
300 205 204 170 112 87 89 100 116 116 115 124 131 139 125 106 115 114 118 110 106 126 133 114 64 60 59 62 69 73 85 77 89 84 83 73 41 42 37 33 27 35 36
223 216 162 109 82 92 98 107 115 122 126 132 132 119 95 93 111 110 109 107 116 110 101 79 60 49 54 57 67 72 76 78 96 96 75 64 52 49 46 21 23 33 40
195 171 113 93 89 115 111 109 115 128 142 142 125 103 89 94 101 102 112 109 104 95 87 72 56 49 48 50 70 89 86 93 93 93 85 84 71 72 55 22 26 30 33
144 110 97 93 98 104 105 114 124 136 143 124 108 94 95 95 99 103 106 100 91 85 83 69 58 48 40 43 71 77 82 88 103 97 91 83 77 67 61 33 11 11 9
90 87 97 97 95 97 102 114 127 133 119 110 109 114 95 102 98 102 95 83 60 65 70 57 57 50 50 46 59 58 74 93 104 96 93 84 78 66 53 45 5 -0 -6

GFSMW_con_3kmhel_048.txt.gz
Helicity
66 74 75 86 95 128 139 126 147 153 124 79 63 -7 -4 42 56 54 51 48 58 60 75 96 109 101 122 109 96 104 111 103 112 102 108 70 25 54 103 103 149 172 166
81 70 79 80 81 76 84 88 84 49 11 -5 14 25 32 52 69 77 88 88 87 95 103 123 128 126 116 108 104 96 93 87 113 92 93 145 169 106 210 165 137 188 171
102 112 113 109 96 78 58 49 42 19 16 42 52 61 61 77 70 93 102 136 135 137 137 142 149 143 123 132 119 122 110 124 113 136 126 177 235 308 192 172 177 177 180
142 139 129 146 112 79 58 36 16 24 43 53 88 97 76 100 155 163 179 189 161 147 145 148 148 142 135 126 119 130 128 130 146 143 142 168 181 217 261 241 168 85 101
148 149 131 93 84 91 80 70 99 112 144 116 88 105 138 151 171 179 158 130 108 109 124 137 140 137 138 150 150 135 132 127 158 155 156 155 157 137 177 182 161 144 82
129 109 96 91 89 102 127 117 132 118 107 125 136 166 176 165 143 114 89 117 121 135 142 132 132 128 133 127 135 138 118 107 89 98 75 87 114 90 116 114 122 121 94
88 84 79 74 103 101 112 101 125 145 155 168 180 168 169 142 97 99 139 128 150 148 130 124 110 116 130 130 121 107 73 46 51 42 64 115 107 106 98 83 104 112 86
78 68 69 86 101 110 112 119 145 178 186 199 170 144 148 124 113 150 137 140 128 123 132 125 118 116 102 87 96 90 71 66 79 79 95 101 99 68 63 81 99 101 93
87 72 77 90 124 131 150 162 187 221 239 227 182 164 134 154 156 124 105 108 119 121 130 128 127 124 92 77 77 90 89 85 87 107 73 68 81 96 91 103 112 120 75
102 89 98 126 145 178 206 244 258 242 221 207 190 128 119 145 138 126 127 140 145 148 142 131 122 112 101 69 90 113 94 74 98 74 100 82 91 92 97 104 97 97 100
127 146 161 188 220 249 261 257 239 275 287 215 94 116 155 150 133 139 158 164 137 121 108 101 98 102 106 75 81 92 96 91 94 118 98 93 91 97 118 97 102 107 110
172 186 219 226 258 274 274 288 279 287 224 35 129 150 132 121 137 154 155 138 110 100 94 99 106 108 111 102 147 97 101 109 110 110 114 104 111 110 96 104 106 111 102
219 226 232 233 265 286 298 305 197 107 79 144 134 118 121 130 146 142 118 112 101 91 90 110 115 127 123 119 97 109 135 126 72 128 121 102 95 89 97 100 104 108 110
232 232 253 254 251 246 224 189 131 152 177 146 118 121 116 116 117 116 106 98 99 94 106 114 145 161 126 99 92 77 80 73 89 96 92 83 86 90 105 98 88 98 111
248 251 253 235 217 225 227 127 194 183 152 131 110 102 98 98 106 97 101 108 110 114 121 143 130 129 114 113 83 90 85 85 83 76 84 85 115 97 81 102 90 99 112
238 250 232 213 203 193 151 181 186 186 129 109 86 90 98 89 88 105 113 118 114 114 125 128 132 117 123 189 136 101 89 70 62 75 80 86 96 109 79 52 72 70 76
230 233 213 192 187 185 195 179 175 137 109 84 84 98 97 91 102 116 124 115 118 117 131 130 135 124 141 165 131 98 56 57 68 77 86 87 92 76 77 86 56 56 52
224 226 213 218 209 203 191 166 144 109 82 84 93 101 112 106 109 120 119 123 125 135 124 133 133 139 176 142 106 63 33 55 69 82 82 80 76 93 95 65 58 47 40
223 226 221 217 233 216 188 140 102 88 85 87 94 109 110 101 112 117 125 110 126 105 127 134 114 130 127 119 71 29 45 58 60 70 73 85 66 97 57 61 59 37 42
267 285 284 260 232 249 133 115 96 84 79 93 99 98 99 110 120 120 103 117 104 110 134 144 132 134 91 104 53 39 51 60 60 55 65 97 110 74 42 60 56 39 42
322 330 291 313 293 157 107 94 75 72 99 93 89 98 119 130 120 106 93 100 114 138 140 133 103 92 64 55 64 49 49 56 60 59 66 72 96 56 41 42 48 41 24
378 362 358 342 238 114 95 60 69 95 95 88 98 116 124 131 122 95 88 110 126 115 129 125 90 65 63 54 54 46 51 60 57 58 68 68 51 46 42 47 38 10 28
425 387 354 247 148 91 62 66 74 89 96 101 117 123 121 117 107 102 105 109 106 110 94 93 72 68 64 47 68 46 49 50 61 61 61 51 51 50 55 70 38 11 29
484 338 172 148 107 72 70 64 81 90 93 107 133 126 118 113 103 114 108 97 98 95 90 83 77 70 60 50 53 54 57 62 54 64 62 65 74 66 75 70 66 27 24
290 156 138 97 72 71 63 76 84 88 91 118 125 105 104 106 112 106 99 104 88 89 77 71 76 72 62 66 69 53 53 54 67 65 58 64 69 68 74 76 72 42 12
169 104 80 64 64 70 72 76 82 88 100 108 111 116 110 112 118 100 100 110 105 84 77 59 64 61 59 48 50 47 34 48 64 52 47 58 67 68 68 70 63 55 17

GFSMW_con_3kmhel_054.txt.gz
Helicity
119 102 80 98 23 164 475 469 297 200 218 173 123 96 73 74 78 42 43 47 48 33 39 70 69 66 109 114 113 125 98 85 92 112 99 86 88 118 113 174 263 363 360
147 64 104 80 145 347 480 271 223 184 123 47 32 65 89 70 91 137 120 125 84 57 59 49 85 165 161 133 189 182 144 143 165 143 130 124 98 89 157 184 192 266 235
118 105 116 135 275 361 311 206 177 79 6 20 126 108 103 156 176 156 102 111 79 97 109 124 160 185 180 171 164 159 180 178 133 137 166 169 183 161 152 149 125 151 158
91 109 205 222 191 197 126 56 57 20 41 148 119 170 116 122 160 178 133 158 98 121 144 153 161 144 118 121 135 166 189 170 164 179 158 163 191 214 181 191 136 134 111
254 209 196 109 77 55 34 39 69 123 171 124 168 89 132 177 233 271 290 237 148 127 116 125 97 154 161 149 169 179 275 230 212 210 208 190 161 130 198 232 177 112 115
207 196 172 188 224 122 152 142 172 240 182 159 200 166 224 324 344 270 252 157 222 170 179 197 276 296 254 218 205 213 206 186 172 185 181 209 194 147 140 138 139 132 117
220 164 222 225 176 163 167 164 196 195 167 187 214 266 309 301 250 233 236 256 224 188 204 238 247 223 182 154 145 163 241 196 167 183 190 157 147 164 196 186 172 142 117
195 169 196 189 148 131 127 95 159 193 200 229 281 291 264 293 276 224 288 214 182 175 185 198 203 184 162 150 140 161 195 224 155 134 134 140 153 161 182 172 172 166 126
176 138 176 180 173 135 127 101 171 246 296 353 337 304 301 259 204 187 188 208 195 195 204 190 180 159 142 139 139 160 185 224 185 110 135 133 127 152 146 194 179 160 112
163 126 195 195 212 197 173 151 203 366 514 400 402 336 310 185 108 216 188 201 203 190 166 173 163 145 137 146 142 143 196 182 120 90 124 154 178 185 229 193 138 126 153
157 120 166 231 215 298 332 300 282 456 439 511 334 308 263 166 161 182 181 190 183 177 186 171 156 144 151 144 149 185 197 217 218 183 161 168 197 206 207 163 112 127 143
161 152 169 267 325 373 377 374 364 415 532 309 214 153 77 107 144 138 168 190 207 197 190 170 150 150 173 226 183 215 212 205 187 139 161 154 179 162 129 132 146 159 170
159 179 261 401 399 372 346 271 418 467 304 208 105 125 120 192 168 176 189 206 197 202 183 153 145 157 208 138 132 166 154 165 142 135 140 147 112 125 158 145 132 118 126
156 285 392 405 357 296 346 431 404 280 200 162 212 190 222 234 210 174 161 152 166 178 163 127 149 227 255 157 145 164 123 99 91 102 108 103 122 163 110 101 112 126 138
280 308 324 325 260 373 402 348 262 215 228 262 197 229 264 237 193 143 119 143 163 149 119 129 244 211 169 162 203 151 155 132 135 120 120 145 131 80 149 118 107 136 131
238 173 220 234 308 375 322 238 277 229 325 212 239 240 224 182 148 107 112 115 132 149 145 235 252 186 157 238 244 228 182 169 150 132 135 113 82 136 102 145 178 118 127
217 169 223 276 352 333 362 351 300 403 313 292 239 253 174 141 111 97 102 117 129 130 171 264 208 144 142 230 220 197 205 161 110 113 102 90 88 145 151 142 122 94 74
204 217 273 342 412 479 471 474 448 390 333 300 254 229 119 98 93 91 107 112 132 172 199 235 165 164 175 233 200 138 131 124 103 107 104 89 97 152 137 112 95 90 90
179 252 332 425 486 469 413 382 412 341 383 475 210 154 112 93 86 101 125 147 143 143 172 211 222 152 223 196 175 151 141 106 92 94 69 79 96 165 146 99 89 92 82
235 333 425 437 466 505 450 418 447 414 347 244 207 91 73 85 101 102 122 156 131 96 223 232 181 178 200 177 155 145 124 92 88 60 63 117 148 138 98 89 111 107 88
323 437 524 556 546 544 581 594 573 213 149 112 120 73 103 95 100 102 128 115 141 172 230 200 136 135 138 182 144 123 119 100 91 84 73 100 106 76 63 80 114 112 97
578 589 560 546 604 638 530 448 316 91 59 72 75 88 92 115 122 132 151 145 193 286 252 179 151 126 110 114 148 125 113 104 108 85 77 70 74 43 50 68 69 61 86
437 466 564 613 569 443 240 133 39 31 51 61 71 82 101 150 125 126 124 153 204 218 174 153 136 132 123 116 108 146 131 110 107 86 59 50 44 32 61 57 75 88 115
540 516 436 323 283 119 38 8 23 45 59 69 79 88 106 131 181 180 149 133 154 187 186 164 142 134 130 116 114 160 144 106 94 65 59 76 71 69 82 62 68 117 133
248 229 189 142 46 49 48 38 43 79 70 81 98 118 139 158 215 187 172 159 130 119 134 155 169 156 133 124 145 143 168 167 136 122 101 75 67 73 78 74 80 94 94
106 65 60 73 44 28 39 65 74 92 138 151 147 148 162 178 208 183 182 154 116 108 92 96 136 149 126 95 91 97 90 98 100 122 101 80 65 67 83 77 74 87 90

GFSMW_con_3kmhel_060.txt.gz
Helicity
-6 -28 -10 33 136 137 166 160 209 205 249 259 248 228 198 138 102 91 141 139 111 134 131 93 62 48 57 38 7 21 14 18 13 12 21 -5 48 55 72 73 96 118 134
63 40 48 161 270 267 219 208 212 231 233 233 218 199 155 87 82 106 115 125 156 146 113 69 73 53 35 33 68 56 57 48 54 52 40 58 46 39 24 41 85 103 105
336 285 267 310 319 312 278 275 235 228 191 190 249 211 189 177 164 153 154 136 131 121 105 47 22 16 10 41 59 72 75 78 52 45 68 76 83 87 43 78 99 93 86
341 424 382 337 316 322 306 283 247 165 152 225 181 145 166 188 122 136 140 141 123 100 69 20 64 66 61 118 99 83 78 86 80 98 106 132 151 127 117 115 173 174 135
393 415 387 316 250 330 288 224 139 154 149 107 83 133 155 139 157 166 177 143 141 171 200 198 202 186 192 174 162 145 127 130 143 154 152 163 171 182 187 171 177 226 143
363 374 312 287 267 224 233 169 140 60 65 80 128 148 204 212 255 261 256 288 352 273 303 328 209 236 222 219 197 174 154 145 164 186 200 219 213 200 209 220 197 227 178
418 408 388 286 245 214 177 142 144 129 121 174 172 239 335 338 378 355 390 349 366 385 491 382 198 235 223 201 178 169 171 168 172 189 206 218 221 218 211 229 215 259 216
369 375 389 250 268 208 130 177 190 249 271 331 369 430 452 447 402 443 402 316 274 246 260 139 204 158 145 151 165 150 141 139 149 152 173 189 174 208 198 209 216 234 223
327 373 363 299 223 187 205 232 285 290 325 363 375 395 398 374 406 389 332 322 163 126 211 216 180 139 145 150 135 132 144 165 175 175 172 185 158 160 153 184 203 236 234
305 327 294 278 226 231 217 251 279 312 315 336 324 304 300 351 264 348 385 195 244 200 185 180 170 160 158 138 139 132 155 177 155 155 193 210 217 214 231 259 279 257 197
306 309 301 286 273 243 280 267 318 370 371 371 358 355 364 451 254 213 136 192 241 219 182 174 171 153 146 130 145 148 175 168 141 119 148 160 192 196 223 220 191 142 134
249 277 294 335 322 291 327 341 432 497 570 569 535 500 521 529 168 231 315 165 201 195 223 189 153 146 140 152 162 173 161 147 126 123 148 129 146 164 173 166 139 121 96
296 343 370 387 383 432 482 549 561 622 669 606 600 546 247 283 298 326 310 167 231 186 155 166 167 121 138 162 168 150 146 131 112 138 160 147 149 139 146 135 119 105 75
321 413 387 433 502 599 674 698 571 586 514 454 411 375 346 325 356 254 213 245 216 222 166 106 109 146 183 176 153 144 130 132 154 151 172 169 142 138 137 146 133 86 61
312 413 543 659 717 678 654 590 531 448 412 477 459 404 394 427 343 302 244 387 247 124 62 106 154 187 207 183 162 156 135 168 205 226 247 221 177 143 163 176 96 72 65
355 519 595 573 556 551 523 449 384 477 501 459 417 411 410 351 368 421 269 173 80 67 123 126 128 162 180 160 146 170 169 194 198 175 164 147 138 168 184 136 89 80 67
361 472 449 448 388 362 373 412 480 515 522 485 463 455 476 482 391 180 135 103 79 102 111 117 112 145 172 162 170 163 179 175 157 150 130 134 175 155 138 107 98 81 60
290 334 345 368 375 432 482 554 567 578 576 558 571 509 400 384 193 164 108 68 87 102 109 106 104 146 176 158 147 146 176 177 152 148 142 135 124 114 119 101 85 67 62
319 362 375 413 457 528 586 625 653 666 621 550 478 472 413 203 181 145 95 80 93 110 115 128 155 178 181 147 124 155 156 158 145 144 129 115 112 101 99 89 68 50 51
392 451 487 568 699 685 719 720 630 562 499 459 411 186 194 138 112 102 107 102 109 109 121 144 195 201 184 143 120 147 201 177 155 131 112 99 111 102 84 83 62 54 55
502 557 635 649 624 607 580 530 436 411 349 277 193 175 116 100 71 106 111 119 128 133 137 167 195 202 188 169 124 114 209 174 147 137 122 124 97 94 77 61 82 79 60
492 509 545 495 425 385 357 361 375 251 194 187 160 122 81 75 90 110 123 139 159 161 154 160 185 207 180 159 145 118 122 141 176 145 131 130 95 77 69 58 54 34 61
386 338 318 294 271 253 226 176 146 179 158 132 130 98 88 91 101 128 147 191 190 192 184 193 194 190 170 155 124 116 110 111 173 165 141 105 92 82 64 37 33 44 81
291 245 275 273 266 187 175 159 148 123 135 131 123 109 106 114 140 165 198 232 240 248 241 222 208 199 188 167 159 174 155 118 120 148 132 136 129 118 98 85 59 73 87
289 268 241 241 222 187 195 146 124 104 122 111 113 121 152 182 199 228 263 274 296 288 268 245 215 200 166 166 161 163 169 152 141 127 119 123 143 127 111 97 86 77 75
265 256 260 242 235 228 215 186 156 136 119 105 113 137 167 193 230 266 265 257 230 234 221 161 192 181 151 98 103 109 98 121 106 149 170 150 143 135 109 100 81 79 73